Location: Stonelick Lake State Park
(39.2170°N, 84.0850°W)
Time: 06:57:37
(UTC-05:00)

Amateur Radio Satellites - All Passes

Search period start: 19 December 2014 06:27
Search period end: 20 December 2014 06:27
Location: Stonelick Lake State Park, 39.2170°N, 84.0850°W

Satellite Date Start Highest point End Downlink Frequencies (MHz)
Time Altitude Azimuth
PRISM 19 Dec 06:30:45 06:34:45 41° 261° (W) 06:38:47 437.425
Cubesat XI-IV 19 Dec 07:18:09 07:23:26 69° 286° (WNW) 07:28:42 437.490
GONETS M04 19 Dec 07:27:10 07:35:24 42° 286° (WNW) 07:43:41
STRAND 1 19 Dec 07:32:15 07:36:42 30° 263° (W) 07:41:11 437.568
VERMONT LUNAR 19 Dec 07:43:41 07:47:13 86° 11° (NNE) 07:50:46 437.305
AO-7 19 Dec 07:47:37 07:50:09 12° 315° (NW) 07:52:40 29.400- 29.500
PHONESAT 2.4 19 Dec 07:49:16 07:52:54 78° 8° (N) 07:56:33 2401.200-2431.200
CUTE-I 19 Dec 07:52:20 07:57:06 34° 292° (WNW) 08:01:51 437.470
SO-50 19 Dec 07:53:30 07:57:37 28° 248° (WSW) 08:01:45 436.795
CUBESAT XI-V 19 Dec 08:06:13 08:07:32 11° 270° (W) 08:08:52 437.345
BRITE-PL 19 Dec 08:28:07 08:31:21 18° 94° (E) 08:34:43 437.365/2234.400
AAUSAT CUBESAT 2 19 Dec 08:49:27 08:51:50 15° 92° (E) 08:54:13 437.432
CANX-2 19 Dec 08:55:58 08:59:50 31° 96° (E) 09:03:39 2200.000
GOMX 1 19 Dec 09:02:23 09:06:32 29° 97° (E) 09:10:55 467.674
HO-68 19 Dec 09:10:20 09:17:14 49° 100° (E) 09:24:05 435.675
TIGRISAT 19 Dec 09:18:48 09:21:06 14° 64° (ENE) 09:23:25 435.000
VERMONT LUNAR 19 Dec 09:22:13 09:25:22 31° 207° (SSW) 09:28:32 437.305
COMPASS 1 19 Dec 09:22:16 09:26:18 40° 98° (E) 09:30:17 437.405
SEEDS 19 Dec 09:25:28 09:29:41 53° 100° (E) 09:33:51 437.485
CUTE 1.7 + AOD 2 19 Dec 09:26:41 09:31:00 65° 101° (E) 09:35:15 437.475
PHONESAT 2.4 19 Dec 09:28:04 09:31:31 41° 204° (SSW) 09:34:57 2401.200-2431.200
DX 1 19 Dec 09:33:17 09:36:07 17° 94° (E) 09:38:56 434.975-435.025
DOVE 4 19 Dec 09:34:58 09:39:34 47° 99° (E) 09:44:25 437.250
POPSAT HIP 1 19 Dec 09:37:51 09:40:07 14° 65° (ENE) 09:42:23 437.405
MaSat-1 19 Dec 09:40:59 09:43:19 62° 296° (WNW) 09:45:34 437.345
UNISAT 6 19 Dec 09:45:27 09:49:08 28° 69° (ENE) 09:52:55 437.425
DELFI C3 19 Dec 09:48:47 09:52:21 28° 96° (E) 09:55:53 145.870
YUBILEINY 19 Dec 09:49:03 09:53:41 15° 61° (ENE) 09:58:16 435.215
CUSAT 1 19 Dec 09:53:33 09:56:44 38° 91° (E) 10:00:51 437.405
Oscar 11 19 Dec 09:57:34 10:01:45 43° 99° (E) 10:05:54 145.826/435.025
HUMSAT D 19 Dec 10:02:23 10:04:14 12° 91° (E) 10:06:05 437.325/437.525
UKube-1 19 Dec 10:05:09 10:09:11 37° 99° (E) 10:13:11 .
DUCHIFAT 1 19 Dec 10:05:09 10:08:45 28° 70° (ENE) 10:12:21 145.980
BRITE-PL 19 Dec 10:05:32 10:09:58 45° 287° (WNW) 10:14:45 437.365/2234.400
CUBEBUG 2 19 Dec 10:06:12 10:10:29 36° 98° (E) 10:14:50 437.445
BUGSAT 1 19 Dec 10:11:59 10:15:26 27° 70° (ENE) 10:18:52 437.445
CINEMA 3 19 Dec 10:12:05 10:16:48 69° 101° (ESE) 10:21:42 145.822/145.860
ANTELSAT 19 Dec 10:16:30 10:20:46 61° 74° (ENE) 10:25:11 437.575/2403.000
QB50P2 19 Dec 10:17:08 10:21:04 39° 72° (ENE) 10:25:01 145.880/145.840
VELOX 1 19 Dec 10:21:00 10:24:08 19° 94° (E) 10:27:16 145.980
AAUSAT CUBESAT 2 19 Dec 10:23:41 10:27:43 43° 287° (WNW) 10:31:43 437.432
ZACube-1 19 Dec 10:23:42 10:27:58 40° 98° (E) 10:32:16 437.345
POLYITAN 1 19 Dec 10:25:15 10:29:18 49° 73° (ENE) 10:33:23 437.675
NANOSAT C BR1 19 Dec 10:28:51 10:32:56 53° 74° (ENE) 10:37:03 145.865
CANX-2 19 Dec 10:32:15 10:35:34 22° 292° (WNW) 10:38:52 2200.000
DANDE 19 Dec 10:37:40 10:40:53 70° 281° (W) 10:45:12 436.750
GOMX 1 19 Dec 10:40:32 10:44:34 29° 290° (WNW) 10:48:50 467.674
QB50P1 19 Dec 10:42:51 10:47:03 79° 76° (ENE) 10:51:17 145.935-145.965
UWE-3 19 Dec 10:47:28 10:52:04 87° 103° (ESE) 10:56:44 435.000/436.395/437.385
FUNcube-1 19 Dec 10:50:44 10:55:16 79° 102° (ESE) 10:59:51 145.935
O/OREOS (USA 219) 19 Dec 10:52:41 10:56:56 39° 64° (ENE) 11:01:10 437.305
TIGRISAT 19 Dec 10:53:10 10:57:22 52° 260° (W) 11:01:42 435.000
HO-68 19 Dec 10:58:32 11:04:38 32° 298° (WNW) 11:10:42 435.675
COMPASS 1 19 Dec 10:58:57 11:01:41 17° 294° (WNW) 11:04:24 437.405
AISAT 19 Dec 11:02:20 11:06:42 56° 101° (E) 11:11:03 437.250
SEEDS 19 Dec 11:02:57 11:05:02 13° 295° (WNW) 11:07:07 437.485
CUTE 1.7 + AOD 2 19 Dec 11:04:58 11:06:21 11° 297° (WNW) 11:07:43 437.475
DX 1 19 Dec 11:08:27 11:12:30 40° 289° (WNW) 11:16:33 434.975-435.025
POPSAT HIP 1 19 Dec 11:11:33 11:15:36 47° 261° (W) 11:19:41 437.405
DOVE 4 19 Dec 11:13:45 11:17:01 19° 293° (WNW) 11:20:24 437.250
CUBEBUG 1 19 Dec 11:14:24 11:18:05 27° 96° (E) 11:21:45 437.445
RS-15 19 Dec 11:16:06 11:25:23 34° 105° (ESE) 11:34:36 29.354- 29.394
UNISAT 6 19 Dec 11:22:20 11:25:53 25° 265° (W) 11:29:32 437.425
DELFI C3 19 Dec 11:24:16 11:27:28 22° 292° (WNW) 11:30:38 145.870
50 SAT 19 Dec 11:25:42 11:29:52 88° 285° (WNW) 11:34:02 437.505
Oscar 11 19 Dec 11:34:49 11:37:33 17° 294° (WNW) 11:40:17 145.826/435.025
HUMSAT D 19 Dec 11:36:06 11:40:20 54° 286° (WNW) 11:44:33 437.325/437.525
CUSAT 1 19 Dec 11:38:45 11:40:26 12° 299° (WNW) 11:42:16 437.405
DUCHIFAT 1 19 Dec 11:41:18 11:44:35 22° 265° (W) 11:47:53 145.980
UKube-1 19 Dec 11:42:02 11:45:04 19° 294° (WNW) 11:48:05 .
YUBILEINY 19 Dec 11:43:14 11:51:59 80° 82° (E) 12:00:41 435.215
CUBEBUG 2 19 Dec 11:43:25 11:46:57 22° 292° (WNW) 11:50:33 437.445
BUGSAT 1 19 Dec 11:47:40 11:50:53 22° 265° (W) 11:54:07 437.445
CINEMA 3 19 Dec 11:51:21 11:53:28 13° 296° (WNW) 11:55:38 145.822/145.860
ESTCUBE 1 19 Dec 11:53:26 11:57:57 80° 103° (ESE) 12:02:26 437.505/2401.250
QB50P2 19 Dec 11:54:33 11:57:08 16° 267° (W) 11:59:45 145.880/145.840
VELOX 1 19 Dec 11:56:46 12:00:49 37° 289° (WNW) 12:04:52 145.980
ANTELSAT 19 Dec 11:56:51 11:58:01 11° 270° (W) 11:59:10 437.575/2403.000
ZACube-1 19 Dec 12:00:49 12:04:02 19° 293° (WNW) 12:07:17 437.345
POLYITAN 1 19 Dec 12:03:38 12:05:31 13° 268° (W) 12:07:24 437.675
NANOSAT C BR1 19 Dec 12:07:38 12:09:07 12° 269° (W) 12:10:37 145.865
Oscar 19 19 Dec 12:23:30 12:27:39 26° 66° (ENE) 12:31:50 437.125/150
SPROUT 19 Dec 12:28:05 12:32:09 40° 98° (E) 12:36:12 437.525
TISAT 1 19 Dec 12:29:35 12:33:39 45° 99° (E) 12:37:42 437.305
FUNcube-1 19 Dec 12:30:15 12:30:58 10° 298° (WNW) 12:31:42 145.935
O/OREOS (USA 219) 19 Dec 12:32:55 12:36:00 18° 260° (W) 12:39:04 437.305
ITAMSAT 1 19 Dec 12:38:06 12:40:29 13° 61° (ENE) 12:42:52 435.822/435.867
AISAT 19 Dec 12:40:39 12:42:50 14° 296° (WNW) 12:45:02 437.250
CUBEBUG 1 19 Dec 12:50:49 12:54:21 25° 291° (WNW) 12:57:53 437.445
BEESAT 19 Dec 13:02:04 13:04:48 15° 92° (E) 13:07:30 436.000
ISS 19 Dec 13:09:09 13:09:44 10° 128° (SE) 13:10:19 145.825
BEESAT 2 19 Dec 13:14:57 13:17:59 20° 111° (ESE) 13:21:03 435.950
RS-15 19 Dec 13:26:05 13:36:55 66° 306° (NW) 13:47:51 29.354- 29.394
YUBILEINY 19 Dec 13:42:00 13:47:41 20° 281° (W) 13:53:23 435.215
PCSat 19 Dec 14:00:11 14:05:15 43° 111° (ESE) 14:10:21 145.827
Gurwin Techsat 1B 19 Dec 14:01:13 14:06:17 48° 71° (ENE) 14:11:23 435.225
Oscar 19 19 Dec 14:02:04 14:06:47 37° 262° (W) 14:11:33 437.125/150
SPROUT 19 Dec 14:05:08 14:07:54 17° 294° (WNW) 14:10:40 437.525
TISAT 1 19 Dec 14:06:42 14:09:06 15° 295° (WNW) 14:11:30 437.305
AIST 2 19 Dec 14:12:14 14:16:09 39° 115° (ESE) 14:20:09 435.215
ITUPSAT 1 19 Dec 14:12:44 14:17:32 83° 103° (ESE) 14:22:17 437.325
SWISSCUBE 19 Dec 14:12:51 14:17:39 89° 284° (WNW) 14:22:24 437.505
BEESAT 3 19 Dec 14:13:08 14:17:14 80° 301° (WNW) 14:21:24 437.485
ITAMSAT 1 19 Dec 14:14:07 14:19:18 77° 257° (WSW) 14:24:30 435.822/435.867
KKS-1 19 Dec 14:27:33 14:31:09 24° 95° (E) 14:34:44 437.445
STARS 19 Dec 14:27:38 14:30:17 16° 93° (E) 14:32:56 437.465
BEESAT 19 Dec 14:38:18 14:42:56 53° 287° (WNW) 14:47:32 436.000
AUBIESAT-1 19 Dec 14:41:02 14:45:20 58° 105° (ESE) 14:49:15 437.475
ISS 19 Dec 14:42:34 14:45:52 77° 321° (NW) 14:49:10 145.825
JAS-2 19 Dec 14:51:50 14:53:59 11° 56° (NE) 14:56:05 435.910
BEESAT 2 19 Dec 14:52:11 14:55:59 35° 307° (NW) 14:59:51 435.950
HORYU 2 19 Dec 14:54:18 14:58:42 61° 74° (ENE) 15:03:08 437.375
AO-7 19 Dec 14:56:39 15:04:15 42° 62° (ENE) 15:11:54 29.400- 29.500
M-CUBED/EXP-1 PRIME 19 Dec 15:05:38 15:10:01 65° 291° (WNW) 15:14:00 437.505
JUGNU 19 Dec 15:24:34 15:25:39 11° 184° (S) 15:26:44 437.505
Gurwin Techsat 1B 19 Dec 15:42:41 15:46:29 20° 267° (W) 15:50:18 435.225
GONETS M04 19 Dec 15:43:03 15:48:48 19° 63° (ENE) 15:54:28
RS-15 19 Dec 15:43:48 15:51:58 23° 335° (NNW) 16:00:18 29.354- 29.394
PCSat 19 Dec 15:44:14 15:48:48 27° 309° (NW) 15:53:24 145.827
AIST 2 19 Dec 15:51:36 15:54:55 22° 312° (NW) 15:58:16 435.215
ITUPSAT 1 19 Dec 15:53:35 15:54:42 11° 300° (WNW) 15:55:50 437.325
BEESAT 3 19 Dec 15:55:28 15:56:07 10° 320° (NW) 15:56:46 437.485
STARS 19 Dec 16:02:44 16:06:58 45° 288° (WNW) 16:11:11 437.465
KKS-1 19 Dec 16:03:52 16:07:46 30° 291° (WNW) 16:11:40 437.445
AIST 1 19 Dec 16:15:04 16:18:19 21° 88° (E) 16:21:35
AUBIESAT-1 19 Dec 16:17:36 16:19:41 13° 303° (WNW) 16:21:42 437.475
ISS 19 Dec 16:20:48 16:22:54 16° 340° (NNW) 16:25:00 145.825
SRMSAT 19 Dec 16:25:17 16:26:40 11° 181° (S) 16:28:03 437.500
JAS-2 19 Dec 16:30:16 16:37:50 62° 72° (ENE) 16:44:48 435.910
HORYU 2 19 Dec 16:34:17 16:35:45 11° 269° (W) 16:37:14 437.375
AO-7 19 Dec 16:49:07 16:56:55 44° 260° (W) 17:04:49 29.400- 29.500
Cubesat XI-IV 19 Dec 17:00:50 17:04:50 22° 64° (ENE) 17:08:51 437.490
MOZHAYETS 4 19 Dec 17:03:42 17:07:58 36° 97° (E) 17:12:12
CUTE-I 19 Dec 17:33:16 17:38:15 42° 70° (ENE) 17:43:14 437.470
GONETS M04 19 Dec 17:38:01 17:46:49 88° 264° (W) 17:55:31
AIST 1 19 Dec 17:51:54 17:55:46 30° 284° (WNW) 17:59:38
RS-15 19 Dec 18:03:01 18:10:11 19° 12° (NNE) 18:17:29 29.354- 29.394
STRAND 1 19 Dec 18:08:04 18:08:24 10° 89° (E) 18:08:43 437.568
PRISM 19 Dec 18:15:12 18:18:48 28° 97° (E) 18:22:22 437.425
JAS-2 19 Dec 18:16:57 18:23:05 26° 266° (W) 18:28:55 435.910
CUBESAT XI-V 19 Dec 18:24:06 18:27:16 18° 93° (E) 18:30:25 437.345
Cubesat XI-IV 19 Dec 18:39:29 18:44:35 46° 261° (W) 18:49:43 437.490
MOZHAYETS 4 19 Dec 18:41:28 18:44:57 21° 293° (WNW) 18:48:24
MaSat-1 19 Dec 19:12:38 19:15:02 64° 247° (WSW) 19:17:35 437.345
CUTE-I 19 Dec 19:14:18 19:18:27 23° 266° (W) 19:22:37 437.470
DANDE 19 Dec 19:35:51 19:40:51 18° 66° (ENE) 19:46:14 436.750
ISS 19 Dec 19:36:00 19:38:17 17° 21° (NNE) 19:40:32 145.825
GONETS M04 19 Dec 19:37:32 19:42:15 16° 283° (WNW) 19:46:58
HO-68 19 Dec 19:38:04 19:44:20 34° 63° (ENE) 19:50:36 435.675
BRITE-PL 19 Dec 19:39:37 19:42:06 16° 66° (ENE) 19:44:34 437.365/2234.400
STRAND 1 19 Dec 19:43:03 19:48:10 83° 285° (WNW) 19:53:15 437.568
CANX-2 19 Dec 19:48:47 19:51:57 21° 68° (ENE) 19:55:08 2200.000
PRISM 19 Dec 19:50:58 19:54:10 22° 292° (WNW) 19:57:21 437.425
CUBESAT XI-V 19 Dec 20:00:33 20:04:52 40° 288° (WNW) 20:09:08 437.345
GOMX 1 19 Dec 20:10:51 20:14:11 24° 69° (ENE) 20:17:32 467.674
COMPASS 1 19 Dec 20:13:23 20:16:50 25° 69° (ENE) 20:20:19 437.405
RS-15 19 Dec 20:16:13 20:26:45 43° 44° (NE) 20:37:40 29.354- 29.394
SEEDS 19 Dec 20:17:02 20:20:49 32° 71° (ENE) 20:24:39 437.485
CUTE 1.7 + AOD 2 19 Dec 20:18:48 20:22:46 40° 72° (ENE) 20:26:47 437.475
SO-50 19 Dec 20:28:53 20:31:01 13° 107° (ESE) 20:33:09 436.795
DX 1 19 Dec 20:29:00 20:31:16 14° 64° (ENE) 20:33:33 434.975-435.025
CUSAT 1 19 Dec 20:31:04 20:38:29 49° 76° (ENE) 20:46:39 437.405
DELFI C3 19 Dec 20:37:23 20:40:01 17° 66° (ENE) 20:42:39 145.870
DOVE 4 19 Dec 20:40:40 20:44:29 37° 72° (ENE) 20:48:21 437.250
Oscar 11 19 Dec 20:51:39 20:55:25 30° 70° (ENE) 20:59:13 145.826/435.025
UKube-1 19 Dec 20:59:34 21:03:17 29° 69° (ENE) 21:07:01 .
CUBEBUG 2 19 Dec 21:04:30 21:07:55 25° 69° (ENE) 21:11:23 437.445
ISS 19 Dec 21:11:57 21:15:14 85° 219° (SW) 21:18:29 145.825
AAUSAT CUBESAT 2 19 Dec 21:13:31 21:17:42 74° 258° (WSW) 21:21:57 437.432
CINEMA 3 19 Dec 21:13:34 21:17:35 52° 74° (ENE) 21:21:42 145.822/145.860
BRITE-PL 19 Dec 21:16:24 21:20:20 39° 262° (W) 21:24:14 437.365/2234.400
DANDE 19 Dec 21:17:21 21:25:03 84° 81° (E) 21:33:47 436.750
VELOX 1 19 Dec 21:18:45 21:21:28 16° 65° (ENE) 21:24:10 145.980
ZACube-1 19 Dec 21:19:34 21:23:03 26° 69° (ENE) 21:26:37 437.345
CANX-2 19 Dec 21:23:50 21:27:40 32° 263° (W) 21:31:32 2200.000
HO-68 19 Dec 21:24:59 21:31:48 46° 260° (W) 21:38:40 435.675
BEESAT 2 19 Dec 21:36:25 21:38:17 13° 42° (NE) 21:40:09 435.950
UWE-3 19 Dec 21:44:02 21:48:08 60° 75° (ENE) 21:52:20 435.000/436.395/437.385
FUNcube-1 19 Dec 21:45:58 21:50:01 52° 74° (ENE) 21:54:09 145.935
GOMX 1 19 Dec 21:48:52 21:52:16 24° 265° (W) 21:55:40 467.674
COMPASS 1 19 Dec 21:48:57 21:52:28 25° 265° (W) 21:56:00 437.405
SEEDS 19 Dec 21:53:37 21:56:42 20° 266° (W) 21:59:49 437.485
CUTE 1.7 + AOD 2 19 Dec 21:56:11 21:58:51 16° 268° (W) 22:01:33 437.475
AISAT 19 Dec 21:59:35 22:03:47 44° 72° (ENE) 22:08:00 437.250
DX 1 19 Dec 22:02:50 22:07:04 52° 259° (W) 22:11:19 434.975-435.025
SO-50 19 Dec 22:06:28 22:10:56 63° 304° (NW) 22:15:35 436.795
CUBEBUG 1 19 Dec 22:10:20 22:13:36 21° 67° (ENE) 22:16:53 437.445
ANTELSAT 19 Dec 22:11:05 22:13:52 15° 92° (E) 22:16:38 437.575/2403.000
DELFI C3 19 Dec 22:11:08 22:14:58 38° 262° (W) 22:18:50 145.870
50 SAT 19 Dec 22:13:02 22:16:54 49° 74° (ENE) 22:20:49 437.505
CUSAT 1 19 Dec 22:14:25 22:21:25 38° 270° (W) 22:29:00 437.405
DOVE 4 19 Dec 22:19:58 22:22:27 15° 268° (W) 22:24:56 437.250
HUMSAT D 19 Dec 22:27:11 22:31:18 87° 257° (WSW) 22:35:30 437.325/437.525
Oscar 11 19 Dec 22:28:12 22:31:35 22° 266° (W) 22:35:00 145.826/435.025
RS-15 19 Dec 22:28:35 22:39:37 61° 247° (WSW) 22:51:09 29.354- 29.394
QB50P1 19 Dec 22:30:59 22:33:16 14° 92° (E) 22:35:32 145.935-145.965
BEESAT 3 19 Dec 22:34:00 22:38:01 44° 54° (NE) 22:41:58 437.485
AIST 2 19 Dec 22:35:31 22:38:53 22° 48° (NE) 22:42:12 435.215
UKube-1 19 Dec 22:35:57 22:39:25 23° 264° (W) 22:42:54 .
CUBEBUG 2 19 Dec 22:41:07 22:44:33 25° 265° (W) 22:48:03 437.445
TIGRISAT 19 Dec 22:46:01 22:50:20 35° 97° (E) 22:54:38 435.000
PCSat 19 Dec 22:49:11 22:53:54 29° 52° (NE) 22:58:35 145.827
YUBILEINY 19 Dec 22:50:15 22:55:26 18° 78° (ENE) 23:00:36 435.215
ESTCUBE 1 19 Dec 22:52:01 22:56:31 65° 75° (ENE) 23:01:01 437.505/2401.250
VELOX 1 19 Dec 22:53:25 22:57:39 46° 260° (W) 23:01:55 145.980
CINEMA 3 19 Dec 22:53:50 22:55:09 11° 270° (W) 22:56:30 145.822/145.860
ZACube-1 19 Dec 22:56:02 22:59:23 23° 265° (W) 23:02:48 437.345
POPSAT HIP 1 19 Dec 22:58:20 23:02:04 29° 97° (E) 23:05:47 437.405
DANDE 19 Dec 23:02:31 23:07:54 21° 275° (W) 23:13:41 436.750
BEESAT 2 19 Dec 23:12:53 23:17:06 80° 240° (WSW) 23:21:13 435.950
UNISAT 6 19 Dec 23:14:22 23:19:05 73° 102° (ESE) 23:23:48 437.425
TISAT 1 19 Dec 23:21:31 23:25:12 30° 70° (ENE) 23:28:52 437.305
SPROUT 19 Dec 23:21:45 23:25:23 28° 70° (ENE) 23:29:03 437.525
FUNcube-1 19 Dec 23:25:14 23:26:43 12° 270° (W) 23:28:12 145.935
DUCHIFAT 1 19 Dec 23:26:30 23:30:43 62° 101° (E) 23:34:56 145.980
BUGSAT 1 19 Dec 23:30:16 23:34:14 53° 100° (E) 23:38:13 437.445
AISAT 19 Dec 23:38:00 23:40:37 15° 267° (W) 23:43:15 437.250
QB50P2 19 Dec 23:39:18 23:43:36 90° 117° (ESE) 23:47:53 145.880/145.840
SWISSCUBE 19 Dec 23:45:29 23:46:04 10° 60° (ENE) 23:46:38 437.505
CUBEBUG 1 19 Dec 23:45:49 23:49:46 33° 263° (W) 23:53:43 437.445
ANTELSAT 19 Dec 23:46:20 23:50:55 52° 287° (WNW) 23:55:29 437.575/2403.000
POLYITAN 1 19 Dec 23:47:48 23:52:05 73° 284° (WNW) 23:56:22 437.675
NANOSAT C BR1 19 Dec 23:50:55 23:55:09 68° 285° (WNW) 23:59:23 145.865
50 SAT 19 Dec 23:51:02 23:52:25 12° 269° (W) 23:53:49 437.505
SO-50 19 Dec 23:51:50 23:52:29 10° 324° (NW) 23:53:08 436.795
QB50P1 20 Dec 00:05:18 00:09:22 45° 287° (WNW) 00:13:26 145.935-145.965
BEESAT 20 Dec 00:08:00 00:11:00 17° 64° (ENE) 00:14:01 436.000
BEESAT 3 20 Dec 00:13:15 00:15:50 16° 251° (WSW) 00:18:22 437.485
AIST 2 20 Dec 00:13:39 00:17:38 39° 245° (WSW) 00:21:34 435.215
M-CUBED/EXP-1 PRIME 20 Dec 00:20:18 00:23:22 17° 59° (ENE) 00:26:28 437.505
TIGRISAT 20 Dec 00:23:11 00:26:51 23° 293° (WNW) 00:30:32 435.000
PCSat 20 Dec 00:32:22 00:37:23 39° 249° (WSW) 00:42:23 145.827
ESTCUBE 1 20 Dec 00:32:29 00:33:47 11° 270° (W) 00:35:05 437.505/2401.250
POPSAT HIP 1 20 Dec 00:34:29 00:37:48 23° 292° (WNW) 00:41:09 437.405
YUBILEINY 20 Dec 00:42:13 00:51:00 87° 277° (W) 00:59:46 435.215
RS-15 20 Dec 00:48:14 00:49:38 10° 265° (W) 00:51:02 29.354- 29.394
UNISAT 6 20 Dec 00:53:27 00:55:15 12° 298° (WNW) 00:57:02 437.425
TISAT 1 20 Dec 00:57:51 01:01:02 21° 265° (W) 01:04:13 437.305
SPROUT 20 Dec 00:58:02 01:01:27 23° 265° (W) 01:04:52 437.525
O/OREOS (USA 219) 20 Dec 01:03:39 01:08:01 57° 108° (ESE) 01:12:24 437.305
DUCHIFAT 1 20 Dec 01:04:36 01:06:03 12° 297° (WNW) 01:07:29 145.980
BUGSAT 1 20 Dec 01:07:44 01:09:16 12° 296° (WNW) 01:10:49 437.445
SWISSCUBE 20 Dec 01:18:22 01:23:10 88° 256° (WSW) 01:28:00 437.505
ITUPSAT 1 20 Dec 01:18:28 01:23:16 84° 76° (ENE) 01:28:06 437.325
STARS 20 Dec 01:25:02 01:27:01 13° 63° (ENE) 01:29:00 437.465
KKS-1 20 Dec 01:25:29 01:28:41 20° 66° (ENE) 01:31:53 437.445
AUBIESAT-1 20 Dec 01:28:03 01:32:49 69° 70° (ENE) 01:37:42 437.475
BEESAT 20 Dec 01:43:45 01:48:25 52° 260° (W) 01:53:06 436.000
M-CUBED/EXP-1 PRIME 20 Dec 01:53:05 01:57:49 61° 255° (WSW) 02:02:43 437.505
Oscar 19 20 Dec 02:14:09 02:19:23 85° 103° (ESE) 02:24:35 437.125/150
Gurwin Techsat 1B 20 Dec 02:19:16 02:23:13 21° 93° (E) 02:27:09 435.225
ITAMSAT 1 20 Dec 02:28:15 02:33:08 41° 99° (E) 02:37:59 435.822/435.867
YUBILEINY 20 Dec 02:43:47 02:49:06 17° 297° (WNW) 02:54:25 435.215
O/OREOS (USA 219) 20 Dec 02:45:22 02:47:48 14° 305° (NW) 02:50:14 437.305
HORYU 2 20 Dec 02:48:49 02:50:58 13° 91° (E) 02:53:06 437.375
STARS 20 Dec 02:58:41 03:02:59 58° 259° (W) 03:07:19 437.465
KKS-1 20 Dec 03:00:59 03:05:03 36° 262° (W) 03:09:10 437.445
AO-7 20 Dec 03:03:11 03:05:23 11° 87° (E) 03:07:35 29.400- 29.500
AUBIESAT-1 20 Dec 03:05:57 03:08:10 13° 265° (W) 03:10:24 437.475
VERMONT LUNAR 20 Dec 03:47:53 03:51:13 40° 156° (SSE) 03:54:33 437.305
Oscar 19 20 Dec 03:56:00 03:57:58 12° 300° (WNW) 03:59:56 437.125/150
PHONESAT 2.4 20 Dec 03:58:12 04:01:30 33° 154° (SSE) 04:04:48 2401.200-2431.200
Gurwin Techsat 1B 20 Dec 03:58:19 04:03:22 46° 289° (WNW) 04:08:24 435.225
AIST 1 20 Dec 03:59:47 04:04:01 56° 80° (E) 04:08:11
MOZHAYETS 4 20 Dec 04:04:50 04:08:53 31° 70° (ENE) 04:12:59
ITAMSAT 1 20 Dec 04:08:20 04:12:21 24° 295° (WNW) 04:16:22 435.822/435.867
HORYU 2 20 Dec 04:23:31 04:27:57 55° 287° (WNW) 04:32:20 437.375
GONETS M04 20 Dec 04:43:48 04:49:59 22° 80° (E) 04:56:10
AO-7 20 Dec 04:51:08 04:59:31 70° 105° (ESE) 05:07:49 29.400- 29.500
SO-50 20 Dec 04:59:55 05:02:29 14° 40° (NE) 05:05:04 436.795
PRISM 20 Dec 05:05:32 05:08:38 20° 67° (ENE) 05:11:44 437.425
STRAND 1 20 Dec 05:21:28 05:24:22 15° 62° (ENE) 05:27:16 437.568
VERMONT LUNAR 20 Dec 05:25:55 05:29:27 77° 352° (N) 05:32:59 437.305
CUBESAT XI-V 20 Dec 05:27:10 05:30:11 17° 65° (ENE) 05:33:11 437.345
JAS-2 20 Dec 05:27:11 05:32:40 52° 99° (E) 05:37:44 435.910
PHONESAT 2.4 20 Dec 05:36:24 05:40:02 84° 349° (N) 05:43:40 2401.200-2431.200
AIST 1 20 Dec 05:40:23 05:41:05 10° 276° (W) 05:41:47
MOZHAYETS 4 20 Dec 05:42:18 05:46:06 25° 265° (W) 05:49:55
CUTE-I 20 Dec 05:52:25 05:55:59 18° 93° (E) 05:59:32 437.470
